Wind_Speed
28 28 29 29 29 29 29 29 29 29 30 30 30 30 32 33 33 33 34 34 35 36 36 36 36 37 37 38 38 38 39 39 39 39 38 38 38 39
28 28 28 29 29 29 29 29 29 29 29 29 29 30 31 32 33 33 34 34 34 35 35 35 36 37 37 37 37 37 36 36 37 37 37 37 38 37
26 26 27 27 28 29 29 29 29 29 29 29 30 31 32 33 33 33 33 33 34 35 34 35 35 35 35 36 35 35 35 35 35 36 35 35 35 35
26 26 26 27 27 28 28 28 29 29 29 28 30 31 31 32 32 32 32 33 33 33 33 33 33 34 34 34 34 35 34 34 34 34 34 35 34 34
25 25 25 26 26 26 27 28 29 29 29 29 29 29 29 30 30 30 30 32 33 32 32 32 32 33 33 33 34 34 34 34 33 33 33 32 32 33
24 24 24 25 25 25 26 26 27 28 28 28 28 28 28 29 29 29 30 31 31 32 32 32 32 32 32 33 33 33 32 32 31 31 31 30 30 30
23 23 23 23 23 23 23 23 24 25 25 25 26 26 26 27 27 27 28 29 29 30 30 30 31 31 31 31 30 30 29 29 28 28 28 28 28 28
20 20 20 20 19 20 20 20 20 21 22 22 23 23 23 23 24 24 25 26 26 27 28 28 28 28 28 27 27 27 26 26 25 26 26 26 26 26
18 18 17 17 17 17 17 17 17 18 19 19 19 19 20 20 21 21 22 22 23 24 25 25 25 24 23 23 23 22 22 23 23 23 23 24 23 23
15 14 14 14 14 14 14 14 14 14 15 15 15 15 16 17 17 17 18 18 19 20 20 20 20 20 19 18 18 18 19 19 20 20 21 21 21 21
11 11 10 10 10 10 10 11 11 11 11 11 11 12 12 12 13 14 14 14 14 14 14 14 15 15 15 14 15 15 16 17 17 17 18 18 19 19
6 6 6 5 6 6 6 7 7 7 7 8 8 7 8 8 8 9 9 9 10 10 10 10 11 11 12 12 13 14 15 15 15 16 16 16 17 17
2 2 2 2 2 2 3 3 4 5 4 4 4 4 4 5 5 5 6 6 7 7 7 8 9 10 11 11 12 12 12 13 13 14 14 15 15 16
4 4 3 2 3 3 3 3 3 3 3 2 2 1 1 2 2 3 4 4 5 6 7 7 8 9 10 10 10 11 11 13 13 14 15 16 16 17
6 7 7 7 7 6 6 5 5 4 4 4 3 2 1 1 2 2 3 4 5 6 6 7 8 8 8 9 10 11 12 13 13 14 15 16 17 18
8 8 9 9 9 9 8 7 7 6 6 5 5 4 4 3 3 3 4 4 5 6 6 6 7 7 8 9 10 10 11 12 13 14 15 16 18 19
11 12 12 11 11 10 10 10 9 9 8 7 6 5 4 3 4 4 5 5 6 6 6 7 8 8 9 10 10 11 12 13 14 15 16 17 19 20
14 14 14 13 13 13 13 12 11 10 9 8 7 6 5 6 6 6 6 7 7 7 8 8 9 9 10 12 13 13 14 15 16 17 18 19 20 22
15 15 15 15 15 14 13 12 11 10 9 8 8 7 7 7 7 7 7 8 9 9 9 10 11 11 12 13 14 15 16 17 18 19 20 21 22 23
15 14 14 14 13 13 12 11 10 10 10 9 9 8 8 8 8 8 9 10 10 11 11 12 12 13 14 15 15 16 18 19 20 21 22 23 24 25
14 13 13 13 12 12 12 11 11 11 10 10 10 9 9 9 10 10 10 11 12 12 13 13 14 15 16 17 18 19 20 22 23 24 25 26 26 27
13 13 13 13 13 12 11 11 11 11 11 10 10 11 11 11 11 11 12 12 13 14 14 15 16 17 18 19 20 21 22 24 25 26 27 29 29 30
13 13 12 12 11 11 11 11 10 10 10 10 11 11 12 12 12 13 14 15 15 16 17 18 19 19 20 21 22 23 24 26 27 29 29 31 32 32
Wind_Direction
270 269 267 264 264 262 260 258 258 257 257 257 258 256 256 257 256 255 256 257 259 261 263 263 264 266 268 267 268 269 270 270 272 273 275 276 275 277
271 269 269 266 263 263 261 260 259 258 256 256 257 257 257 257 258 258 258 259 262 263 263 263 264 266 267 268 269 270 271 271 271 271 272 274 276 276
271 269 269 268 265 263 262 261 259 259 258 257 257 257 258 259 258 259 259 259 260 261 262 263 263 265 267 267 268 269 271 271 271 272 275 277 277 278
272 271 269 268 268 264 262 261 259 258 258 258 258 258 259 260 260 259 260 260 260 262 263 263 264 265 266 268 269 271 271 273 275 276 276 278 279 279
274 272 270 269 268 266 263 261 259 259 258 259 258 258 260 260 261 260 260 260 260 261 263 264 265 267 269 270 271 271 273 273 274 276 277 279 280 281
275 273 271 269 266 265 264 262 260 258 258 259 258 258 259 260 261 261 261 262 262 262 265 266 267 269 271 271 271 271 272 272 273 276 278 280 281 283
277 275 273 271 268 265 264 263 260 257 257 257 258 258 260 260 260 261 261 262 263 263 265 266 268 269 270 270 271 270 271 271 273 276 279 281 284 285
278 276 273 271 268 265 264 263 260 256 255 256 258 258 259 260 261 263 263 263 264 264 265 267 269 269 269 270 272 272 272 273 276 278 280 282 284 286
278 276 272 269 267 265 263 261 259 256 255 256 258 259 259 260 262 263 264 266 269 269 268 269 268 269 271 272 272 273 273 275 276 278 279 282 284 285
278 275 272 268 266 263 262 260 257 255 255 255 257 257 259 261 264 265 268 271 275 274 271 272 273 273 274 276 276 277 276 277 279 280 283 284 285 286
279 277 271 267 261 260 259 255 251 250 254 254 253 255 257 259 264 269 272 276 278 279 279 278 277 278 281 280 280 280 281 282 283 283 284 285 287 288
290 278 272 269 258 252 252 246 237 238 245 247 248 249 253 259 268 272 274 280 281 283 284 283 283 284 285 286 284 283 284 284 285 286 287 287 289 291
339 328 296 280 249 230 226 223 215 214 217 233 240 248 257 265 271 274 279 286 287 287 291 292 292 292 292 291 290 288 287 287 288 289 291 291 293 294
59 62 73 83 101 115 136 145 157 168 178 183 173 192 258 269 279 296 293 295 297 302 302 299 300 299 298 296 293 293 293 291 291 294 296 296 297 298
78 77 85 90 95 99 105 117 115 118 123 116 113 106 79 54 35 351 334 325 324 324 320 315 310 306 305 304 302 299 298 298 298 298 299 299 299 299
80 83 88 89 98 96 96 101 102 101 99 93 90 86 75 57 33 10 358 349 339 333 329 326 322 318 315 312 311 308 305 304 304 303 302 302 301 300
84 89 90 90 90 91 91 91 91 89 87 83 77 72 62 42 26 15 6 2 358 351 343 336 331 326 320 316 311 308 307 306 305 306 305 304 304 303
86 88 87 87 86 85 83 81 79 76 72 70 68 63 55 42 29 20 13 8 1 353 345 338 331 324 320 317 315 313 311 310 310 309 308 306 306 305
83 86 86 84 82 79 78 76 72 68 65 62 58 49 39 32 26 19 12 7 2 355 347 339 332 326 323 321 318 316 314 312 310 309 308 307 306 305
83 83 83 81 79 77 73 71 68 64 58 53 48 42 37 32 26 18 11 3 358 352 346 340 334 329 325 322 320 318 316 313 310 310 309 308 307 306
79 78 77 75 74 72 69 65 61 56 51 48 43 38 31 24 18 11 4 359 354 349 345 340 334 329 326 324 322 320 317 315 313 312 311 310 309 308
75 75 72 69 65 64 61 57 53 50 46 41 35 29 22 16 9 3 359 354 350 346 342 338 335 331 328 325 323 322 320 317 315 314 313 312 311 310
72 69 65 61 60 59 56 52 47 43 37 31 24 17 11 7 3 358 353 349 344 341 338 335 333 331 329 325 323 321 320 318 316 315 314 313 312 311
Height
5764 5764 5764 5765 5765 5767 5768 5769 5771 5772 5773 5775 5776 5777 5778 5779 5780 5781 5782 5783 5784 5785 5785 5786 5787 5787 5787 5787 5787 5787 5787 5786 5786 5785 5784 5783 5782 5780
5756 5756 5756 5756 5757 5758 5760 5761 5762 5764 5765 5767 5768 5769 5770 5771 5772 5773 5774 5775 5776 5776 5777 5777 5778 5778 5779 5779 5778 5778 5778 5777 5777 5776 5775 5774 5773 5771
5747 5748 5748 5748 5749 5750 5751 5753 5754 5756 5757 5759 5760 5761 5762 5763 5764 5765 5766 5767 5768 5768 5769 5769 5769 5770 5770 5770 5770 5770 5769 5769 5768 5767 5766 5765 5763 5762
5740 5740 5740 5741 5741 5742 5743 5745 5746 5748 5749 5751 5752 5753 5754 5755 5756 5757 5757 5758 5759 5760 5761 5761 5761 5761 5761 5761 5761 5761 5760 5760 5760 5759 5758 5757 5755 5754
5732 5732 5733 5733 5734 5734 5735 5737 5738 5739 5741 5742 5744 5745 5746 5747 5748 5748 5749 5750 5751 5752 5752 5753 5752 5753 5753 5753 5753 5752 5752 5752 5751 5750 5749 5748 5747 5746
5725 5725 5725 5725 5726 5727 5728 5729 5730 5731 5733 5734 5736 5737 5738 5739 5740 5740 5741 5742 5743 5744 5744 5745 5745 5745 5745 5745 5745 5744 5744 5744 5743 5742 5741 5740 5739 5738
5718 5718 5718 5718 5718 5719 5720 5721 5722 5724 5726 5727 5728 5729 5731 5731 5732 5733 5734 5735 5736 5736 5737 5737 5737 5737 5737 5737 5737 5737 5737 5736 5736 5735 5734 5733 5732 5731
5712 5711 5711 5711 5712 5712 5713 5715 5716 5717 5719 5721 5722 5723 5724 5725 5726 5727 5727 5728 5729 5730 5730 5730 5730 5730 5730 5730 5730 5730 5730 5729 5729 5728 5727 5726 5725 5724
5705 5705 5705 5706 5706 5707 5708 5709 5710 5712 5714 5715 5716 5718 5719 5720 5721 5721 5722 5722 5723 5723 5723 5723 5724 5724 5723 5723 5723 5723 5723 5723 5722 5722 5721 5720 5719 5718
5700 5700 5701 5701 5702 5702 5703 5704 5706 5707 5709 5711 5712 5713 5714 5715 5716 5717 5717 5717 5718 5718 5718 5718 5718 5718 5718 5718 5718 5717 5717 5717 5717 5716 5715 5714 5713 5712
5696 5696 5696 5697 5698 5699 5700 5701 5703 5704 5706 5707 5708 5709 5710 5711 5712 5713 5713 5714 5714 5714 5714 5714 5714 5714 5714 5714 5713 5713 5713 5712 5712 5711 5710 5709 5708 5707
5694 5694 5694 5695 5696 5696 5698 5699 5700 5702 5703 5704 5706 5707 5708 5709 5709 5710 5710 5711 5711 5711 5711 5711 5710 5710 5710 5710 5709 5709 5709 5708 5707 5706 5705 5704 5703 5702
5693 5693 5693 5694 5695 5696 5697 5698 5699 5700 5702 5703 5704 5705 5706 5707 5708 5708 5709 5709 5709 5709 5709 5708 5708 5708 5707 5707 5706 5706 5705 5704 5703 5702 5701 5700 5699 5697
5694 5694 5694 5694 5695 5696 5697 5698 5699 5700 5702 5703 5704 5705 5706 5706 5707 5707 5708 5708 5708 5707 5707 5706 5706 5705 5705 5704 5703 5702 5701 5700 5699 5698 5697 5696 5695 5693
5696 5695 5695 5696 5697 5698 5698 5699 5701 5702 5702 5703 5704 5705 5706 5706 5707 5707 5707 5707 5706 5706 5705 5705 5704 5703 5702 5702 5701 5700 5698 5697 5696 5694 5693 5692 5690 5688
5698 5698 5698 5699 5699 5700 5701 5701 5702 5703 5704 5705 5706 5706 5707 5707 5707 5707 5706 5706 5706 5705 5704 5703 5702 5702 5701 5699 5698 5697 5696 5694 5693 5691 5689 5688 5685 5683
5701 5701 5702 5702 5702 5703 5703 5704 5705 5705 5706 5707 5707 5707 5707 5707 5707 5707 5707 5706 5705 5704 5703 5702 5701 5699 5698 5697 5696 5694 5693 5691 5689 5687 5686 5684 5681 5678
5705 5705 5705 5706 5706 5707 5707 5707 5708 5708 5708 5709 5709 5709 5709 5708 5708 5707 5707 5706 5705 5703 5702 5701 5700 5698 5697 5695 5693 5691 5689 5687 5685 5683 5681 5679 5676 5673
5710 5710 5710 5710 5711 5711 5711 5711 5711 5711 5711 5711 5711 5710 5710 5709 5708 5708 5706 5705 5704 5703 5701 5699 5698 5696 5694 5692 5691 5688 5686 5683 5681 5679 5676 5673 5671 5668
5714 5714 5715 5715 5715 5715 5715 5714 5714 5714 5714 5713 5713 5712 5711 5710 5709 5708 5707 5705 5703 5701 5699 5697 5695 5693 5691 5690 5687 5685 5681 5679 5676 5673 5670 5667 5664 5661
5719 5719 5719 5719 5718 5718 5718 5718 5717 5717 5716 5715 5714 5713 5712 5711 5710 5708 5706 5704 5702 5700 5698 5696 5693 5691 5688 5686 5683 5681 5677 5674 5670 5667 5664 5661 5657 5654
5723 5723 5722 5722 5722 5722 5721 5720 5720 5719 5718 5717 5716 5714 5713 5711 5710 5708 5706 5703 5701 5699 5696 5694 5691 5688 5685 5682 5679 5676 5673 5669 5665 5661 5656 5653 5649 5645
5727 5726 5726 5725 5725 5724 5724 5723 5722 5721 5720 5718 5717 5715 5713 5712 5709 5707 5705 5702 5700 5697 5694 5691 5688 5684 5681 5677 5673 5670 5666 5662 5658 5654 5650 5645 5640 5636